Hourly Data Report for October 23, 2013

All times are specified in Local Standard Time (LST). Add 1 hour to adjust for Daylight Saving Time where and when it is observed.

SAINT JOHN A
NEW BRUNSWICK

45°18'58.000" N
65°53'24.000" W
108.80 m
8104901
71609
YSJ

Download Data

Hourly Data (October 2013)
Hourly Data Report for October 23, 2013
Temp Definition
°C
Dew Point Temp Definition
°C
Rel Hum Definition
%
Wind Dir Definition
10's deg

Wind Spd Definition
km/h
Visibility Definition
km
Stn Press Definition
kPa
Hmdx Definition


Wind Chill Definition


Weather Definition


TIME
00:00 Legend Double Dagger 10.5 8.9 90 30 32 19.3 99.20     Rain
01:00 Legend Double Dagger 6.9 4.2 83 34 17 24.1 99.30     LegendNANA
02:00 Legend Double Dagger 6.6 4.3 85 36 11 24.1 99.31     Cloudy
03:00 Legend Double Dagger 5.0 3.2 88 36 13 24.1 99.26     LegendNANA
04:00 Legend Double Dagger 4.0 2.8 92 32 12 24.1 99.30     LegendNANA
05:00 Legend Double Dagger 3.3 2.6 95 32 10 24.1 99.32     Mainly Clear
06:00 Legend Double Dagger 3.0 2.6 97 31 7 24.1 99.33     LegendNANA
07:00 Legend Double Dagger 2.1 1.5 96 31 7 24.1 99.31     LegendNANA
08:00 Legend Double Dagger 4.5 3.6 94 1 4 24.1 99.36     Mainly Clear
09:00 Legend Double Dagger 6.7 2.8 76 32 9 24.1 99.37     LegendNANA
10:00 Legend Double Dagger 8.2 2.9 69 34 8 24.1 99.36     LegendNANA
11:00 Legend Double Dagger 9.2 0.7 55 31 10 24.1 99.33     Mainly Clear
12:00 Legend Double Dagger 10.2 -0.3 48 30 9 24.1 99.20     LegendNANA
13:00 Legend Double Dagger 10.8 -0.6 45 30 10 24.1 99.16     LegendNANA
14:00 Legend Double Dagger 11.3 -0.8 43 20 5 24.1 99.04     Mainly Clear
15:00 Legend Double Dagger 11.3 -0.5 44 29 10 24.1 99.02     LegendNANA
16:00 Legend Double Dagger 9.6 1.5 57 23 12 24.1 99.01     LegendNANA
17:00 Legend Double Dagger 7.6 0.1 59 24 10 24.1 98.94     Mostly Cloudy
18:00 Legend Double Dagger 6.3 1.6 72 20 5 24.1 98.97     LegendNANA
19:00
20:00 Legend Double Dagger 4.6 2.3 85 10 3 24.1 98.91     Cloudy
21:00 Legend Double Dagger 3.5 1.7 88 11 3 24.1 98.82     LegendNANA
22:00 Legend Double Dagger 4.3 2.0 85 16 2 24.1 98.84     LegendNANA
23:00 Legend Double Dagger 5.3 2.7 83 34 7 24.1 98.83     Cloudy

Notes on Data Quality.

Legend

  • E = Estimated
  • M = Missing
  • NA = Not Available
  • ‡ = Partner data that is not subject to review by the National Climate Archives
Date modified: